Regional Weather Roundup
Issued by NWS Midland/Odessa, TX

Skip options and go directly to product.
Home | Oldest Version | Next Version | Current Version | All | Text Only | Save Text | Print | Product List | Glossary On

Skip product version selection by date and time.   
597
ASUS44 KMAF 310501
RWRMAF
MIDLAND AREA WEATHER ROUNDUP
NATIONAL WEATHER SERVICE MIDLAND TX
1100 PM CST FRI JAN 30 2015

...IN SOUTHWEST TEXAS AND SOUTHEAST NEW MEXICO...

CITY           SKY/WX    TMP DP  RH WIND       PRES   REMARKS
ALPINE         CLOUDY    41  40  95 N3        30.16F
ANDREWS        RAIN      42  36  79 E8        30.19S WCI  37
ARTESIA        DRIZZLE   37  37 100 CALM      30.17F
BIG SPRING     CLOUDY    47  31  54 E12       30.22S
CARLSBAD       LGT RAIN  40  37  89 CALM      30.15F FOG
DRYDEN           N/A     51  43  74 E10       30.16F
FORT STOCKTON  LGT RAIN  46  42  86 SE10      30.14F
GUAD PASS      MIX PCPN  32  32 100 NE23      30.12R FOG     WCI  19
HOBBS          LGT RAIN  37  37 100 E8        30.16F WCI  31
MARFA          CLOUDY    43  39  87 NE6       30.12S WCI  39
MIDLAND AIRPK  DRIZZLE   47  34  60 SE8       30.20S
MIDLAND INTL   CLOUDY    45  35  68 SE10      30.19S WCI  40
ODESSA         CLOUDY    45  34  65 E13       30.18F WCI  39
PECOS          DRIZZLE   45  42  92 NE5       30.15F
PRESIDIO       CLOUDY    50  44  79 NE17G23   30.06S
SEMINOLE       DRIZZLE   39  35  86 E6        30.19F WCI  35
SNYDER         CLOUDY   N/A N/A N/A E12       30.22S
WINK           LGT RAIN  45  39  79 E7        30.14F
$$
...OTHER STATIONS IN TEXAS...

CITY           SKY/WX    TMP DP  RH WIND       PRES   REMARKS
ABILENE        CLOUDY    47  32  56 SE12      30.24F
AMARILLO       MIX PCPN  34  32  92 SE9       30.21S WCI  27
AUSTIN         CLOUDY    48  39  71 NE3       30.28F
BROWNSVILLE    MOCLDY    62  60  93 CALM      30.20S
CORPUS CHRISTI CLOUDY    58  53  84 NE14      30.24F
DALLAS FTW     CLOUDY    51  29  42 SE10      30.30F
DEL RIO        CLOUDY    57  42  57 E13       30.19R
EL PASO        LGT RAIN  42  40  92 NE5       30.03F WCI  39
HOUSTON INT    PTCLDY    48  37  65 E9        30.31F
LUBBOCK        CLOUDY    39  32  76 SE9       30.20F WCI  33
SAN ANGELO     CLOUDY    49  36  61 E7        30.20F
SAN ANTONIO    CLOUDY    54  40  59 E9        30.26F
WACO           CLOUDY    47  38  71 E3        30.30F
WICHITA FALLS  NOT AVBL
$$
...OTHER LOCATIONS IN NEW MEXICO...

CITY           SKY/WX    TMP DP  RH WIND       PRES   REMARKS
ALAMAGORDO     LGT RAIN  41  41 100 CALM      30.07S
ALBUQUERQUE    CLOUDY    37  31  78 NE8       30.05S WCI  31
CANNON AFB     LGT RAIN  34  33  94 SE10      30.16F WCI  26
CLOVIS         CLOUDY    34  30  86 S12       30.17F WCI  25
HOLLOMAN AFB   LGT RAIN  43  43 100 S7        30.05S WCI  39
ROSWELL        LGT RAIN  38  35  89 CALM      30.15F
RUIDOSO        FOG       28  28 100 SE7       30.10F VSB 3/4 WCI  21
SANTA FE       CLOUDY    31  27  85 S10       30.05F WCI  22
TRUTH OR CONSE CLOUDY    40  39  97 NW3       30.02F
TUCUMCARI      LGT RAIN  36  34  92 S3        30.16S
$$

USA.gov is the U.S. government's official web portal to all federal, state and local government web resources and services.